Location: LDNL
(36.4545°S, 141.6685°E)
Time: 12:29:44
(UTC+10:00)

Vanguard 3 - Pass Details

Date: 04 February 2022
Orbit: 508 x 3258 km, 33.3° (Epoch: 25 May)

Event Time Altitude Azimuth Distance (km) Brightness Sun altitude
Rises 21:14:21 0° 334° (NNW) 2,684 9.8 -7.0°
Reaches altitude 10° 21:16:58 10° 356° (N) 1,946 8.9 -7.4°
Maximum altitude 21:19:50 17° 38° (NE) 1,753 8.3 -7.9°
Drops below altitude 10° 21:23:26 10° 77° (ENE) 2,547 9.1 -8.6°
Enters shadow 21:23:50 - 80° (E) 2,675 9.2 -8.7°
Sets 21:27:36 0° 95° (E) 3,982 - -9.3°
